EDT,Max TemperatureF,Mean TemperatureF,Min TemperatureF,Max Dew PointF,MeanDew PointF,Min DewpointF,Max Humidity, Mean Humidity, Min Humidity, Max Sea Level PressureIn, Mean Sea Level PressureIn, Min Sea Level PressureIn, Max VisibilityMiles, Mean VisibilityMiles, Min VisibilityMiles, Max Wind SpeedMPH, Mean Wind SpeedMPH, Max Gust SpeedMPH,PrecipitationIn, CloudCover, Events, WindDirDegrees
2010-10-1,80,70,60,64,57,53,90,66,42,29.90,29.78,29.67,10,10,8,17,6,23,0.00,1,,13
2010-10-2,78,67,55,54,49,44,93,59,30,29.98,29.91,29.87,10,10,10,14,6,18,0.00,0,,38
2010-10-3,78,65,51,55,51,49,93,66,37,30.02,29.94,29.88,10,10,10,14,4,20,0.00,2,,34
2010-10-4,73,64,54,52,50,47,77,61,44,30.15,30.09,30.03,10,10,10,15,6,21,0.00,4,,19
2010-10-5,72,61,50,51,45,39,89,60,31,30.23,30.17,30.13,10,10,10,15,5,21,0.00,1,,360
2010-10-6,74,60,45,46,41,33,93,61,23,30.19,30.11,30.01,10,10,9,13,4,18,0.00,0,,309
2010-10-7,82,64,46,53,46,40,93,63,23,30.09,30.03,29.96,10,10,10,10,2,16,0.00,0,,282
2010-10-8,82,67,51,54,50,48,93,63,31,30.12,30.06,30.01,10,10,7,13,3,18,0.00,0,,38
2010-10-9,85,69,53,63,56,51,100,80,34,30.11,30.05,29.98,10,7,0,7,1,16,0.00,2,Fog,284
2010-10-10,86,69,51,59,55,51,100,81,30,30.06,30.01,29.94,10,5,0,9,1,13,0.00,0,Fog,242
2010-10-11,87,71,54,63,56,51,97,80,29,30.01,29.97,29.90,10,5,0,14,3,17,0.00,0,Fog,225
2010-10-12,87,73,58,60,56,51,97,62,29,29.97,29.94,29.90,10,9,4,18,5,22,0.00,0,,242
2010-10-13,84,72,60,61,58,52,90,67,32,29.98,29.95,29.91,10,9,6,9,2,13,0.00,2,,221
2010-10-14,78,67,56,63,56,52,97,85,43,29.94,29.88,29.82,10,4,0,12,2,17,0.23,0,Fog-Rain-Thunderstorm,323
2010-10-15,77,62,46,49,43,35,86,56,22,30.03,29.94,29.81,10,10,10,22,6,28,0.00,0,,298
2010-10-16,74,59,43,47,41,35,93,60,25,30.18,30.11,30.04,10,10,10,12,3,17,0.00,0,,340
2010-10-17,80,60,40,49,43,37,100,64,23,30.19,30.11,30.04,10,9,5,13,2,16,0.00,0,,237
2010-10-18,83,64,44,53,46,40,93,64,22,30.09,30.01,29.93,10,9,2,13,4,17,0.00,0,,215
2010-10-19,82,67,52,54,51,46,96,67,28,29.98,29.93,29.87,10,10,6,16,4,22,0.00,0,,235
2010-10-20,75,64,53,59,55,50,93,82,54,29.92,29.90,29.85,10,7,1,12,2,16,0.00,2,,294
2010-10-21,81,66,50,55,50,39,100,78,23,29.96,29.91,29.85,10,5,0,17,5,24,0.00,0,Fog,274
2010-10-22,77,62,46,48,43,36,93,61,22,30.24,30.11,29.96,10,10,9,13,3,17,0.00,0,,62
2010-10-23,78,59,40,49,41,31,93,63,19,30.33,30.27,30.24,10,10,6,10,2,21,0.00,0,,92
2010-10-24,79,64,48,64,56,47,100,78,47,30.27,30.19,30.11,10,10,7,9,2,13,T,3,,163
2010-10-25,77,0,-1000,69,63,60,100,93,73,30.08,30.00,29.89,10,6,0,23,2,31,0.33,5,Fog-Rain,150
2010-10-26,82,74,65,72,69,64,100,90,69,30.00,29.95,29.88,10,7,0,16,7,23,0.00,6,Fog,195
2010-10-27,87,80,73,72,71,69,93,83,55,30.10,30.03,29.96,10,9,7,15,8,21,0.00,5,,203
2010-10-28,82,72,62,72,70,53,100,83,63,30.10,30.03,29.96,10,9,7,13,6,16,0.01,5,Rain,243
2010-10-29,70,58,46,50,43,37,93,59,32,30.21,30.13,30.02,10,10,7,16,5,24,0.00,0,,348
2010-10-30,72,57,41,50,42,39,93,72,31,30.28,30.20,30.09,10,8,2,9,2,14,0.00,0,,171
2010-10-31,79,65,50,53,47,36,100,63,21,30.10,30.05,29.97,10,10,7,17,6,24,0.00,0,,245